Simultaneous Nadir Overpasses (SNOs) Predictions

Prediction of SNOs between GOES-14 and NPP Satellite Orbit:

Table of predicted SNOs for the next 14.0 days since TLE Epoch: 7/20/2024
Index Date Time (GOES-14) GOES-14 Lat,Lon NPP Lat,Lon Distance(km) Time Diff (sec)
1 07/21/2024 20:40:15 0.30,-108.44 0.16,-109.20 85.86 80
2 07/22/2024 20:24:10 0.28,-108.44 1.12,-104.67 430.28 80
3 07/24/2024 08:43:20 -0.32,-108.48 0.04,-109.94 167.65 80
4 07/25/2024 08:27:16 -0.30,-108.48 -0.99,-105.42 348.18 80
5 07/26/2024 20:46:34 0.33,-108.42 -0.17,-110.74 263.68 80
6 07/27/2024 20:30:30 0.32,-108.42 0.80,-106.20 252.49 80
7 07/29/2024 08:49:39 -0.36,-108.47 0.34,-111.48 344.56 80
8 07/30/2024 08:33:36 -0.34,-108.46 -0.70,-106.96 170.95 80
9 07/31/2024 20:52:53 0.38,-108.39 -0.51,-112.27 442.30 80
10 08/01/2024 20:36:50 0.37,-108.39 0.54,-107.75 73.65 80
